Regional Weather Roundup
Issued by NWS

Home | Current Version | Previous Version | Graphics & Text | Print | Product List | Glossary On
Versions: 1 2 3 4 5 6 7 8 9 10 11 12 13 14 15 16 17 18 19 20 21 22 23 24 25 26 27
000
ASUS45 KBOU 160607
RWRCO

WEATHER ROUNDUP FOR COLORADO
NATIONAL WEATHER SERVICE DENVER/BOULDER CO
1200 AM MDT MON OCT 16 2017

NOTE: "FAIR" INDICATES FEW OR NO CLOUDS BELOW 12000 FEET WITH NO
SIGNIFICANT WEATHER AND/OR OBSTRUCTIONS TO VISIBILITY.

COZ001>005-013-030-031-160700-
...NORTHWEST COLORADO...

CITY           SKY/WX    TMP DP  RH WIND       PRES   REMARKS
CRAIG          FAIR      25  18  74 CALM      30.48F
HAYDEN         FAIR      37  16  42 E14       30.50F
MEEKER         FAIR      33  17  51 NE6       30.49F WCI  28
RABBIT EARS PA FAIR      34   9  35 W8        30.62F WCI  27
STEAMBOAT SPGS FAIR      32  15  49 CALM      30.51F
WALDEN         FAIR      28  14  54 SE7       30.53F WCI  21
$$

COZ006>008-011-160700-
...WEST CENTRAL VALLEYS...

CITY           SKY/WX    TMP DP  RH WIND       PRES   REMARKS
GRAND JUNCTION FAIR      42  14  32 E6        30.46S
MONTROSE       FAIR      36  16  44 S10       30.52S
EAGLE          FAIR      32  17  54 S3        30.55R
RIFLE          FAIR      37  18  46 CALM      30.49S
DELTA          FAIR      37  12  35 CALM      30.49S
NUCLA          NOT AVBL
$$

COZ017>023-064>068-160700-
...SOUTHWEST COLORADO...

CITY           SKY/WX    TMP DP  RH WIND       PRES   REMARKS
DURANGO        FAIR      33  14  45 N5        30.53R WCI  29
CORTEZ         FAIR      31  17  56 E5        30.50S WCI  26
PAGOSA SPRINGS FAIR      33  11  40 CALM      30.58S
TELLURIDE      NOT AVBL
WOLF CREEK PAS NOT AVBL
$$

COZ009-010-012-014-032>034-037-058>063-160700-
...CENTRAL COLORADO...

CITY           SKY/WX    TMP DP  RH WIND       PRES   REMARKS
ASPEN          FAIR      30  15  53 S7        30.55S WCI  23
BUENA VISTA    FAIR      32  12  44 CALM      30.55S
COPPER MTN     NOT AVBL
BERTHOUD PASS  FAIR      30  19  64 NW30G40   30.66F WCI  15
COTTONWOOD PAS FAIR      46   0  14 NW6       30.62S
GUNNISON       FAIR      28  14  55 CALM      30.59R
KREMMLING      FAIR      30  19  64 CALM      30.56S
LEADVILLE      FAIR      31   0  26 NE7       30.60F WCI  24
SALIDA         NOT AVBL
SUNLIGHT       FAIR      36   3  25 SW10      30.69F
WILKERSON PASS FAIR      37  -8  14 W7        30.69F
$$

COZ069>075-160700-
...SAN LUIS VALLEY/SANGRE DE CRISTO MOUNTAINS...

CITY           SKY/WX    TMP DP  RH WIND       PRES   REMARKS
ALAMOSA        FAIR      31  17  56 NW5       30.55R WCI  26
DEL NORTE      FAIR      37  10  32 W12       30.57S
LA VETA PASS   FAIR      39   5  24 SW24      30.73S
SAGUACHE       FAIR      37   7  28 NW15      30.56S
$$

COZ035-036-038>040-160700-
...NORTHERN COLORADO FRONT RANGE...

CITY           SKY/WX    TMP DP  RH WIND       PRES   REMARKS
DENVER INTL AP FAIR      41  27  57 W8        30.40S
DMNS CITY PARK   N/A     41  30  64 E9        30.40F
AURORA         CLEAR     42  25  51 S9        30.41F
FRONT RANGE AP FAIR      43  30  61 SW7       30.42R
ERIE MUNI ARPT FAIR      35  31  85 S3        30.45F
BOULDER MUN AP FAIR      43  27  52 SW3       30.40F HAZE
CENTENNIAL     FAIR      38  26  62 S5        30.42F
BROOMFIELD     FAIR      46  27  46 CALM      30.41F
FORT COLLINS   FAIR      42  30  62 CALM      30.39F
LONGMONT       FAIR      40  29  65 W5        30.41F
$$

COZ041-046-047-076>085-087-088-160700-
...PIKES PEAK/PALMER DIVIDE AND SOUTHERN FOOTHILLS...

CITY           SKY/WX    TMP DP  RH WIND       PRES   REMARKS
COLO. SPRINGS  FAIR      37  22  54 NE6       30.47S
A. F. ACADEMY  FAIR      30  19  64 N10       30.46F WCI  21
SCHRIEVER AFB  FAIR      38  21  49 MISG      30.47F
CHEYENNE MTN   FAIR      44  15  31 NW3       30.42F
ELLICOTT       FAIR     N/A N/A N/A VRB5      30.45F
FALCON         FAIR      35  19  52 W5        30.48F WCI  31
FORT CARSON    FAIR      35  22  58 NW9       30.44F WCI  28
LIMON          FAIR      27  24  89 N3        30.43F
MONUMENT HILL  FAIR      41  19  42 S13       30.47F
CANON CITY     CLEAR     41  25  52 W5        30.44F
WALSENBURG     FAIR      37  25  60 W5        30.46F
TRINIDAD       FAIR      44  28  53 NW7       30.45S
$$

COZ042>045-048>051-090-091-160700-
...NORTHEAST COLORADO...

CITY           SKY/WX    TMP DP  RH WIND       PRES   REMARKS
GREELEY ARPT   FAIR      34  28  79 NW7       30.39F WCI  28
AKRON          FAIR      46  24  42 S12       30.37F
BURLINGTON     FAIR      39  27  62 SW7       30.40F
WRAY           FAIR      41  28  60 W6        30.38F
YUMA           FAIR      32  28  86 SW9       30.38F WCI  24
STERLING       FAIR      37  28  70 CALM      30.35F
HOLYOKE        FAIR      37  32  81 W6        30.37F
FORT MORGAN    FAIR      37  23  57 CALM      30.38F
$$

COZ086-089-092>099-160700-
...SOUTHEAST COLORADO...

CITY           SKY/WX    TMP DP  RH WIND       PRES   REMARKS
PUEBLO         FAIR      40  26  57 SW7       30.42F
LA JUNTA       FAIR      39  30  70 W7        30.40R
LAMAR          FAIR      38  28  67 E3        30.38F
SPRINGFIELD      N/A     36  30  79 SW8       30.42S
$$




USA.gov is the U.S. government's official web portal to all federal, state and local government web resources and services.